Location: Newark
(54.0500°N, 12.8333°E)
Time: 13:10:48
(UTC+00:00)

Transit 4A - Visible Passes

Search period start: 17 January 2021 00:00
Search period end: 27 January 2021 00:00
Orbit: 864 x 981 km, 66.8° (Epoch: 17 January)

Date Brightness Start Highest point End Pass type
(mag) Time Alt. Az. Time Alt. Az. Time Alt. Az.
17 Jan 10.6 01:35:32 12° ENE 01:35:32 12° ENE 01:36:06 10° ENE visible
17 Jan 8.4 03:19:04 56° ENE 03:19:04 56° ENE 03:24:25 10° ESE visible
17 Jan 8.3 05:02:37 32° WNW 05:04:38 42° WSW 05:10:15 10° S visible
18 Jan 10.5 01:45:09 13° E 01:45:09 13° E 01:45:56 10° E visible
18 Jan 8.2 03:28:42 63° ESE 03:28:42 63° ESE 03:33:55 10° SE visible
18 Jan 8.7 05:12:15 27° W 05:13:44 31° WSW 05:18:55 10° S visible
19 Jan 10.4 01:54:53 14° E 01:54:53 14° E 01:55:45 10° E visible
19 Jan 8.2 03:38:26 59° SSE 03:38:26 59° SSE 03:43:15 10° SE visible
19 Jan 9.0 05:22:00 22° W 05:22:45 22° WSW 05:27:17 10° SSW visible
19 Jan 10.2 18:44:21 10° S 18:44:26 10° S 18:44:26 10° S visible
20 Jan 10.4 02:04:42 14° E 02:04:42 14° E 02:05:30 10° ESE visible
20 Jan 8.4 03:48:16 45° S 03:48:16 45° S 03:52:27 10° SSE visible
20 Jan 9.4 05:31:50 16° WSW 05:31:50 16° WSW 05:35:12 10° SW visible
20 Jan 9.8 18:53:06 10° S 18:54:43 18° S 18:54:43 18° S visible
21 Jan 10.4 02:14:39 13° ESE 02:14:39 13° ESE 02:15:11 10° ESE visible
21 Jan 8.9 03:58:13 32° S 03:58:13 32° S 04:01:29 10° SSE visible
21 Jan 9.8 05:41:47 10° WSW 05:41:47 10° WSW 05:41:54 10° WSW visible
21 Jan 9.7 17:19:50 10° SE 17:21:23 13° ESE 17:21:23 13° ESE visible
21 Jan 9.3 19:02:04 10° SSW 19:04:58 28° SSW 19:04:58 28° SSW visible
22 Jan 10.5 02:24:41 10° SE 02:24:41 10° SE 02:24:45 10° SE visible
22 Jan 9.4 04:08:16 21° SSW 04:08:16 21° SSW 04:10:18 10° S visible
22 Jan 9.2 17:27:34 10° SSE 17:31:32 20° ESE 17:31:32 20° ESE visible
22 Jan 8.8 19:11:14 10° SSW 19:15:07 40° SSW 19:15:07 40° SSW visible
22 Jan 10.6 20:58:37 10° W 20:58:42 10° W 20:58:42 10° W visible
23 Jan 9.9 04:18:24 12° SSW 04:18:24 12° SSW 04:18:51 10° SSW visible
23 Jan 8.8 17:35:49 10° SSE 17:41:08 28° ESE 17:41:37 28° ESE visible
23 Jan 8.6 19:20:32 10° SW 19:25:11 51° SW 19:25:11 51° SW visible
23 Jan 10.6 21:08:27 10° W 21:08:45 11° W 21:08:45 11° W visible
24 Jan 8.5 17:44:24 10° S 17:50:14 38° ESE 17:51:35 34° E visible
24 Jan 8.5 19:30:01 10° SW 19:35:09 54° W 19:35:09 54° W visible
24 Jan 10.6 21:18:19 10° W 21:18:42 12° WNW 21:18:42 12° WNW visible
25 Jan 9.7 16:12:27 10° ESE 16:14:24 11° E 16:16:20 10° E visible
25 Jan 8.2 17:53:14 10° SSW 17:59:24 51° ESE 18:01:26 37° ENE visible
25 Jan 8.7 19:39:35 10° WSW 19:44:59 49° WNW 19:44:59 49° WNW visible
25 Jan 10.7 21:28:11 10° WNW 21:28:33 11° WNW 21:28:33 11° WNW visible
26 Jan 9.5 16:19:28 10° SE 16:23:18 17° ESE 16:27:08 10° ENE visible
26 Jan 7.9 18:02:16 10° SSW 18:08:38 67° SE 18:11:11 37° NE visible
26 Jan 9.0 19:49:17 10° WSW 19:54:44 43° NW 19:54:44 43° NW visible
26 Jan 10.7 21:38:03 10° WNW 21:38:18 11° WNW 21:38:18 11° WNW visible
